This demonstration page uses our WeatherBlox Daily Observations layout. Learn more.

Left ArrowRight Arrow

34.74481, -87.66753

Hourly Observations for August 27, 2015

Temp ( °F °C ) Dew Point ( °F °C ) Humidity (%) Winds ( mph kmh ) Pressure ( in mb ) Visibility ( mi km ) Precip ( " mm )
12:53 am 00:53 Clear 65 18.3 58 14.4 78 78 Calm 30.06 1018 10 16 0.00 0.00
1:53 am 01:53 Clear 62 16.7 57 13.9 84 84 Calm 30.06 1018 10 16 0.00 0.00
2:53 am 02:53 Clear 64 17.8 57 13.9 78 78 NNE 5 7 30.05 1018 10 16 0.00 0.00
3:53 am 03:53 Clear 63 17.2 57 13.9 81 81 N 6 9 30.05 1018 10 16 0.00 0.00
4:53 am 04:53 Clear 63 17.2 57 13.9 81 81 VRB 3 6 30.06 1018 10 16 0.00 0.00
5:53 am 05:53 Clear 61 16.1 56 13.3 84 84 Calm 30.07 1018 10 16 0.00 0.00
6:53 am 06:53 Sunny 63 17.2 57 13.9 81 81 N 5 7 30.08 1019 10 16 0.00 0.00
7:53 am 07:53 Sunny 66 18.9 59 15 78 78 ESE 3 6 30.09 1019 10 16 0.00 0.00
8:53 am 08:53 Sunny 72 22.2 59 15 64 64 VRB 6 9 30.09 1019 10 16 0.00 0.00
9:53 am 09:53 Sunny 74 23.3 58 14.4 57 57 VRB 7 11 30.10 1019 10 16 0.00 0.00
10:53 am 10:53 Sunny 77 25 57 13.9 50 50 VRB 3 6 30.09 1019 10 16 0.00 0.00
11:53 am 11:53 Sunny 78 25.6 54 12.2 43 43 N 9 15 30.08 1019 10 16 0.00 0.00
12:53 pm 12:53 Sunny 80 26.7 54 12.2 41 41 Calm 30.06 1018 10 16 0.00 0.00
1:53 pm 13:53 Sunny 81 27.2 56 13.3 42 42 VRB 5 7 30.04 1017 10 16 0.00 0.00
2:53 pm 14:53 Sunny 83 28.3 58 14.4 43 43 VRB 5 7 30.05 1018 10 16 0.00 0.00
3:53 pm 15:53 Mostly Sunny 82 27.8 60 15.6 47 47 N 8 13 30.04 1017 10 16 0.00 0.00
4:53 pm 16:53 Sunny 83 28.3 60 15.6 46 46 VRB 3 6 30.03 1017 10 16 0.00 0.00
5:53 pm 17:53 Sunny 81 27.2 59 15 47 47 N 6 9 30.04 1017 10 16 0.00 0.00
6:53 pm 18:53 Sunny 78 25.6 59 15 52 52 N 6 9 30.04 1017 10 16 0.00 0.00
7:53 pm 19:53 Clear 74 23.3 59 15 60 60 N 3 6 30.04 1017 10 16 0.00 0.00
8:53 pm 20:53 Clear 68 20 60 15.6 76 76 N 5 7 30.05 1018 10 16 0.00 0.00
9:53 pm 21:53 Clear 70 21.1 59 15 68 68 ENE 5 7 30.06 1018 10 16 0.00 0.00
10:53 pm 22:53 Clear 70 21.1 57 13.9 64 64 ENE 5 7 30.06 1018 10 16 0.00 0.00
11:53 pm 23:53 Clear 65 18.3 60 15.6 84 84 Calm 30.05 1018 10 16 0.00 0.00

Powered by AerisWeather